Date String (YYYY-MM-DD hh:mm:ss) UTC,Instrument flags,absolute air pressure of the measurement (hPa),sample flow rate (lpm),inlet stack bypass flow (lpm),air temperature of the measurement (°C),ambient temperature measured by the external sensor (°C),aerosol sample conditioner tube jacket temperature (°C),OPC LED temperature (°C),internal box temperature (°C),relative humidity of the measurement (%),span deviation,mass concentration of particles derived from Lorenz-Mie calculation of OPC scattering (μg/m³),mass concentration of particles derived from Lorenz-Mie calculation of OPC scattering (μg/m³),mass concentration of particles derived from Lorenz-Mie calculation of OPC scattering (μg/m³)
DateTimeUTC,F1_M11,P_M11,Q1_M11,Q2_M11,T1_M11,T2_M11,T3_M11,T4_M11,T5_M11,U1_M11,ZSPAN_M11,X2_M11,X0_M11,X1_M11
2023-08-04 02:00:00,SystemResetWarning,0833.2,5.00,000.00,031.4,025.0,000.0,039.1,031.2,35.0,0000.0,0003.49,0007.26,0002.85
2023-08-04 02:01:00,SystemResetWarning,0833.4,5.02,000.00,031.4,025.2,000.0,039.1,031.1,35.1,0000.0,0003.50,0006.83,0002.85
2023-08-04 02:02:00,SystemResetWarning,0833.2,4.99,000.00,031.6,025.6,000.0,039.1,031.2,34.8,0000.0,0003.53,0007.36,0002.86
2023-08-04 02:03:00,SystemResetWarning,0833.2,4.99,000.00,031.7,026.1,000.0,039.2,031.3,34.7,0000.0,0003.56,0007.86,0002.87
2023-08-04 02:04:00,SystemResetWarning,0833.2,5.01,000.00,031.8,026.6,000.0,039.2,031.4,34.6,0000.0,0003.55,0008.25,0002.88
2023-08-04 02:05:00,SystemResetWarning,0833.3,4.99,000.00,031.8,027.0,000.0,039.3,031.4,34.6,0000.0,0003.53,0008.50,0002.87
2023-08-04 02:06:00,SystemResetWarning,0833.3,5.01,000.00,031.8,027.3,000.0,039.3,031.5,34.6,0000.0,0003.55,0008.59,0002.87
2023-08-04 02:07:00,SystemResetWarning,0833.3,5.01,000.00,031.8,027.6,000.0,039.4,031.6,34.7,0000.0,0003.58,0009.06,0002.89
2023-08-04 02:08:00,SystemResetWarning,0833.3,5.01,000.00,031.8,027.9,000.0,039.4,031.6,34.7,0000.0,0003.60,0009.10,0002.90
2023-08-04 02:09:00,SystemResetWarning,0833.3,4.99,000.00,031.8,028.1,000.0,039.5,031.7,34.8,0000.0,0003.58,0008.92,0002.92
2023-08-04 02:10:00,SystemResetWarning,0833.2,4.99,000.00,031.8,028.0,000.0,039.5,031.7,34.7,0000.0,0003.59,0008.86,0002.96
2023-08-04 02:11:00,SystemResetWarning,0833.2,5.00,000.00,031.8,026.5,000.0,039.4,031.5,34.5,0000.0,0003.67,0009.43,0003.03
2023-08-04 02:12:00,SystemResetWarning,0833.2,5.00,000.00,031.7,025.2,000.0,039.3,031.2,34.7,0000.0,0003.71,0009.51,0003.09
2023-08-04 02:13:00,SystemResetWarning,0833.2,5.00,000.00,031.6,024.9,000.0,039.2,031.0,35.0,0000.0,0003.76,0009.42,0003.12
2023-08-04 02:14:00,SystemResetWarning,0833.1,5.02,000.00,031.4,025.2,000.0,039.3,030.9,35.2,0000.0,0003.80,0009.08,0003.15
2023-08-04 02:15:00,SystemResetWarning,0833.2,5.01,000.00,031.5,025.7,000.0,039.3,031.1,34.8,0000.0,0003.83,0008.82,0003.17
2023-08-04 02:16:00,SystemResetWarning,0833.2,4.98,000.00,031.7,026.1,000.0,039.3,031.3,34.6,0000.0,0003.88,0008.47,0003.19
2023-08-04 02:17:00,SystemResetWarning,0833.2,5.02,000.00,031.7,026.6,000.0,039.3,031.3,34.5,0000.0,0003.90,0008.47,0003.21
2023-08-04 02:18:00,SystemResetWarning,0833.2,4.99,000.00,031.8,027.0,000.0,039.4,031.4,34.7,0000.0,0003.90,0008.12,0003.23
2023-08-04 02:19:00,SystemResetWarning,0833.1,4.99,000.00,031.8,027.3,000.0,039.4,031.5,35.1,0000.0,0003.93,0008.18,0003.25
2023-08-04 02:20:00,SystemResetWarning,0833.2,5.03,000.00,031.9,027.6,000.0,039.4,031.6,34.8,0000.0,0003.96,0008.33,0003.27
2023-08-04 02:21:00,SystemResetWarning,0833.2,4.97,000.00,032.0,027.9,000.0,039.5,031.7,34.3,0000.0,0004.02,0008.19,0003.29
2023-08-04 02:22:00,SystemResetWarning,0833.2,5.02,000.00,032.1,028.1,000.0,039.5,031.8,34.0,0000.0,0004.00,0007.70,0003.29
2023-08-04 02:23:00,SystemResetWarning,0833.2,5.00,000.00,032.2,028.2,000.0,039.6,031.8,33.9,0000.0,0004.02,0007.70,0003.29
2023-08-04 02:24:00,SystemResetWarning,0833.2,4.98,000.00,032.2,027.1,000.0,039.5,031.8,33.9,0000.0,0004.01,0007.67,0003.29
2023-08-04 02:25:00,SystemResetWarning,0833.2,5.00,000.00,032.2,025.5,000.0,039.4,031.5,33.8,0000.0,0003.96,0007.50,0003.28
2023-08-04 02:26:00,SystemResetWarning,0833.1,5.01,000.00,032.1,024.9,000.0,039.4,031.3,33.9,0000.0,0003.94,0007.45,0003.29
2023-08-04 02:27:00,SystemResetWarning,0833.1,5.01,000.00,031.9,025.1,000.0,039.4,031.0,34.4,0000.0,0003.91,0007.40,0003.29
2023-08-04 02:28:00,SystemResetWarning,0833.2,5.00,000.00,031.7,025.5,000.0,039.5,031.1,34.7,0000.0,0003.88,0007.32,0003.29
2023-08-04 02:29:00,SystemResetWarning,0833.1,4.97,000.00,031.6,026.0,000.0,039.5,031.2,35.2,0000.0,0003.84,0007.13,0003.28
2023-08-04 02:30:00,SystemResetWarning,0833.1,5.04,000.00,031.7,026.4,000.0,039.5,031.3,35.0,0000.0,0003.86,0007.13,0003.28
2023-08-04 02:31:00,SystemResetWarning,0833.1,4.96,000.00,031.9,026.8,000.0,039.5,031.5,34.4,0000.0,0003.87,0007.03,0003.27
2023-08-04 02:32:00,SystemResetWarning,0833.2,5.02,000.00,032.0,027.2,000.0,039.5,031.6,34.5,0000.0,0003.81,0006.74,0003.25
2023-08-04 02:33:00,SystemResetWarning,0833.2,4.99,000.00,032.0,027.5,000.0,039.6,031.6,34.6,0000.0,0003.79,0006.64,0003.24
2023-08-04 02:34:00,SystemResetWarning,0833.2,4.99,000.00,032.0,027.7,000.0,039.6,031.7,34.5,0000.0,0003.77,0006.57,0003.25
2023-08-04 02:35:00,SystemResetWarning,0833.2,5.00,000.00,032.0,028.0,000.0,039.7,031.7,34.2,0000.0,0003.77,0006.63,0003.25
2023-08-04 02:36:00,SystemResetWarning,0833.2,5.00,000.00,032.0,028.1,000.0,039.7,031.8,34.2,0000.0,0003.77,0006.82,0003.25
2023-08-04 02:37:00,SystemResetWarning,0833.2,5.00,000.00,032.0,027.6,000.0,039.7,031.8,34.1,0000.0,0003.76,0006.63,0003.24
2023-08-04 02:38:00,SystemResetWarning,0833.2,5.00,000.00,032.0,026.1,000.0,039.5,031.6,34.0,0000.0,0003.77,0006.86,0003.24
2023-08-04 02:39:00,SystemResetWarning,0833.2,5.01,000.00,031.9,025.7,000.0,039.5,031.4,34.1,0000.0,0003.78,0007.14,0003.23
2023-08-04 02:40:00,SystemResetWarning,0833.2,5.01,000.00,031.7,025.8,000.0,039.5,031.2,34.2,0000.0,0003.78,0007.36,0003.23
2023-08-04 02:41:00,SystemResetWarning,0833.2,4.99,000.00,031.6,026.2,000.0,039.5,031.2,34.6,0000.0,0003.77,0007.37,0003.23
2023-08-04 02:42:00,SystemResetWarning,0833.2,4.98,000.00,031.5,026.6,000.0,039.5,031.3,35.1,0000.0,0003.76,0007.72,0003.22
2023-08-04 02:43:00,SystemResetWarning,0833.2,5.04,000.00,031.6,027.0,000.0,039.5,031.4,34.6,0000.0,0003.79,0007.94,0003.22
2023-08-04 02:44:00,SystemResetWarning,0833.1,4.96,000.00,031.7,027.3,000.0,039.5,031.6,34.0,0000.0,0003.75,0007.88,0003.21
2023-08-04 02:45:00,SystemResetWarning,0833.1,5.02,000.00,031.7,027.6,000.0,039.5,031.6,34.2,0000.0,0003.73,0007.89,0003.20
2023-08-04 02:46:00,SystemResetWarning,0833.0,5.00,000.00,031.8,027.8,000.0,039.6,031.7,34.1,0000.0,0003.76,0007.97,0003.20
2023-08-04 02:47:00,SystemResetWarning,0833.0,5.00,000.00,031.8,028.0,000.0,039.6,031.7,33.8,0000.0,0003.77,0007.89,0003.20
2023-08-04 02:48:00,SystemResetWarning,0833.3,4.99,000.00,031.8,027.8,000.0,039.5,031.7,33.7,0000.0,0003.81,0008.27,0003.20
2023-08-04 02:49:00,SystemResetWarning,0833.1,5.00,000.00,031.8,026.1,000.0,039.4,031.5,33.7,0000.0,0003.81,0008.61,0003.19
2023-08-04 02:50:00,SystemResetWarning,0833.0,5.00,000.00,031.7,024.9,000.0,039.3,031.3,33.9,0000.0,0003.82,0008.59,0003.20
2023-08-04 02:51:00,SystemResetWarning,0833.1,5.01,000.00,031.5,024.8,000.0,039.3,031.0,34.2,0000.0,0003.82,0009.18,0003.18
2023-08-04 02:52:00,SystemResetWarning,0833.0,4.99,000.00,031.3,025.1,000.0,039.3,030.9,35.2,0000.0,0003.84,0009.79,0003.18
2023-08-04 02:53:00,SystemResetWarning,0832.9,5.03,000.00,031.3,025.6,000.0,039.3,031.0,35.3,0000.0,0003.81,0009.53,0003.17
2023-08-04 02:54:00,SystemResetWarning,0833.0,4.99,000.00,031.5,026.1,000.0,039.3,031.3,34.7,0000.0,0003.81,0009.33,0003.17
2023-08-04 02:55:00,SystemResetWarning,0833.2,5.00,000.00,031.7,026.5,000.0,039.3,031.4,34.6,0000.0,0003.85,0009.48,0003.17
2023-08-04 02:56:00,SystemResetWarning,0833.3,5.02,000.00,031.7,026.9,000.0,039.3,031.4,34.5,0000.0,0003.84,0009.42,0003.17
2023-08-04 02:57:00,SystemResetWarning,0833.0,5.00,000.00,031.8,027.2,000.0,039.4,031.5,34.2,0000.0,0003.79,0009.33,0003.15
2023-08-04 02:58:00,SystemResetWarning,0833.0,5.00,000.00,031.8,027.5,000.0,039.4,031.5,33.8,0000.0,0003.81,0009.61,0003.16
2023-08-04 02:59:00,SystemResetWarning,0833.2,5.00,000.00,031.8,027.7,000.0,039.5,031.6,33.8,0000.0,0003.80,0009.56,0003.15
